Location: Bacharowice
(49.9333°N, 19.5833°E)
Time: 02:08:05
(UTC+00:00)

CZ-4B DEB - Pass Details

Date: 11 May 2021
Orbit: 408 x 414 km, 97.3° (Epoch: 24 June)

Event Time Altitude Azimuth Distance (km) Brightness Sun altitude
Exits shadow 20:34:26 43° 176° (S) 613 4.6 -16.7°
Maximum altitude 20:35:23 80° 256° (WSW) 437 4.2 -16.8°
Drops below altitude 10° 20:38:39 10° 345° (NNW) 1,525 8.3 -17.0°
Sets 20:40:40 0° 347° (NNW) 2,395 9.6 -17.2°
